• In Kazakhstan
  • List of Countries
  • For 7 days
  • Water Temperature
  • Satellite Maps
  • Weather Map
  • News
  • Weather Widgets
  • user-avatar
    Login

    Hourly Weather Billings

    Today, 22 November, Wednesday

    Time Temperature Precipitation Wind Pressure Humidity
    00:00 +3°C° 0 mm 6 mps 670 mmHg 71%
    01:00 +3°C° 0 mm 6 mps 670 mmHg 70%
    02:00 +3°C° 0 mm 6 mps 670 mmHg 69%
    03:00 +4°C° 0 mm 6 mps 670 mmHg 69%
    04:00 +4°C° 0 mm 6 mps 670 mmHg 69%
    05:00 +6°C° 0 mm 7 mps 670 mmHg 66%
    06:00 +6°C° 0 mm 7 mps 670 mmHg 68%
    07:00 +7°C° 0 mm 6 mps 671 mmHg 69%
    08:00 +7°C° 0 mm 6 mps 671 mmHg 71%
    09:00 +8°C° 0 mm 6 mps 671 mmHg 70%
    10:00 +9°C° 0 mm 6 mps 672 mmHg 69%
    11:00 +10°C° 0 mm 6 mps 672 mmHg 67%
    12:00 +11°C° 0 mm 6 mps 672 mmHg 65%
    13:00 +13°C° 0 mm 6 mps 672 mmHg 62%
    14:00 +14°C° 0 mm 6 mps 673 mmHg 60%
    15:00 +11°C° 0 mm 6 mps 672 mmHg 63%
    16:00 +10°C° 0 mm 5 mps 672 mmHg 67%
    17:00 +9°C° 0 mm 5 mps 672 mmHg 71%
    18:00 +9°C° 0 mm 5 mps 672 mmHg 71%
    19:00 +9°C° 0 mm 5 mps 672 mmHg 71%
    20:00 +8°C° 0 mm 5 mps 672 mmHg 71%
    21:00 +8°C° 0 mm 5 mps 672 mmHg 70%
    22:00 +8°C° 0 mm 5 mps 672 mmHg 70%
    23:00 +8°C° 0 mm 5 mps 672 mmHg 69%

    Tomorrow, 23 November, Thursday

    Time Temperature Precipitation Wind Pressure Humidity
    00:00 +8°C° 0 mm 6 mps 671 mmHg 69%
    01:00 +8°C° 0 mm 6 mps 671 mmHg 69%
    02:00 +8°C° 0 mm 6 mps 671 mmHg 69%
    03:00 +8°C° 0 mm 6 mps 670 mmHg 68%
    04:00 +8°C° 0 mm 6 mps 670 mmHg 68%
    05:00 +8°C° 0 mm 5 mps 669 mmHg 68%
    06:00 +8°C° 0 mm 5 mps 669 mmHg 68%
    07:00 +8°C° 0 mm 5 mps 669 mmHg 67%
    08:00 +8°C° 0 mm 5 mps 669 mmHg 66%
    09:00 +9°C° 0 mm 6 mps 669 mmHg 61%
    10:00 +11°C° 0 mm 7 mps 669 mmHg 56%
    11:00 +14°C° 0 mm 7 mps 669 mmHg 52%
    12:00 +14°C° 0 mm 7 mps 668 mmHg 49%
    13:00 +15°C° 0 mm 7 mps 667 mmHg 46%
    14:00 +16°C° 0 mm 7 mps 667 mmHg 44%
    15:00 +15°C° 0 mm 7 mps 666 mmHg 47%
    16:00 +13°C° 0 mm 6 mps 665 mmHg 50%
    17:00 +11°C° 0 mm 6 mps 664 mmHg 52%
    18:00 +10°C° 0 mm 6 mps 664 mmHg 53%
    19:00 +10°C° 0 mm 6 mps 664 mmHg 54%
    20:00 +10°C° 0 mm 7 mps 664 mmHg 55%
    21:00 +9°C° 0 mm 6 mps 663 mmHg 57%
    22:00 +9°C° 0 mm 6 mps 663 mmHg 58%
    23:00 +9°C° 0 mm 5 mps 663 mmHg 60%

    Day after tomorrow, 24 November, Friday

    Time Temperature Precipitation Wind Pressure Humidity
    00:00 +8°C° 0.5 mm 5 mps 663 mmHg 64%
    01:00 +8°C° 0.5 mm 5 mps 663 mmHg 67%
    02:00 +8°C° 0.5 mm 5 mps 663 mmHg 71%
    03:00 +7°C° 0.1 mm 4 mps 663 mmHg 72%
    04:00 +7°C° 0.1 mm 4 mps 663 mmHg 73%
    05:00 +8°C° 0.1 mm 3 mps 663 mmHg 74%
    06:00 +6°C° 0.6 mm 4 mps 664 mmHg 73%
    07:00 +6°C° 0.6 mm 5 mps 664 mmHg 72%
    08:00 +5°C° 0.6 mm 6 mps 665 mmHg 71%
    09:00 +7°C° 0.1 mm 6 mps 665 mmHg 62%
    10:00 +8°C° 0.1 mm 7 mps 666 mmHg 53%
    11:00 +7°C° 0.1 mm 8 mps 666 mmHg 44%
    12:00 +9°C° 0 mm 8 mps 666 mmHg 41%
    13:00 +10°C° 0 mm 8 mps 666 mmHg 38%
    14:00 +10°C° 0 mm 9 mps 666 mmHg 35%
    15:00 +9°C° 0 mm 7 mps 666 mmHg 40%
    16:00 +7°C° 0 mm 5 mps 667 mmHg 46%
    17:00 +7°C° 0 mm 3 mps 667 mmHg 51%
    18:00 +5°C° 0 mm 3 mps 667 mmHg 53%
    19:00 +5°C° 0 mm 2 mps 667 mmHg 55%
    20:00 +5°C° 0 mm 2 mps 668 mmHg 57%
    21:00 +4°C° 0 mm 2 mps 668 mmHg 59%
    22:00 +4°C° 0 mm 2 mps 668 mmHg 62%
    23:00 +4°C° 0 mm 2 mps 668 mmHg 64%

    25 November, Saturday

    Time Temperature Precipitation Wind Pressure Humidity
    00:00 +4°C° 0 mm 2 mps 669 mmHg 65%
    01:00 +3°C° 0 mm 2 mps 669 mmHg 66%
    02:00 +3°C° 0 mm 2 mps 669 mmHg 68%
    03:00 +3°C° 0 mm 2 mps 669 mmHg 69%
    04:00 +3°C° 0 mm 2 mps 669 mmHg 69%
    05:00 +2°C° 0 mm 3 mps 669 mmHg 70%
    06:00 +2°C° 0 mm 3 mps 669 mmHg 70%
    07:00 +2°C° 0 mm 3 mps 669 mmHg 69%
    08:00 +2°C° 0 mm 3 mps 670 mmHg 68%
    09:00 +4°C° 0 mm 3 mps 670 mmHg 62%
    10:00 +6°C° 0 mm 4 mps 670 mmHg 56%
    11:00 +8°C° 0 mm 4 mps 670 mmHg 50%
    12:00 +9°C° 0 mm 5 mps 670 mmHg 48%
    13:00 +10°C° 0 mm 5 mps 669 mmHg 47%
    14:00 +10°C° 0 mm 5 mps 669 mmHg 45%
    15:00 +10°C° 0 mm 5 mps 669 mmHg 47%
    16:00 +9°C° 0 mm 6 mps 668 mmHg 49%
    17:00 +8°C° 0 mm 6 mps 668 mmHg 50%
    18:00 +8°C° 0.1 mm 6 mps 668 mmHg 50%
    19:00 +8°C° 0.1 mm 7 mps 668 mmHg 51%
    20:00 +8°C° 0.1 mm 7 mps 667 mmHg 51%
    21:00 +8°C° 0 mm 7 mps 667 mmHg 50%
    22:00 +9°C° 0 mm 7 mps 667 mmHg 49%
    23:00 +9°C° 0 mm 7 mps 667 mmHg 47%

    26 November, Sunday

    Time Temperature Precipitation Wind Pressure Humidity
    00:00 +9°C° 0 mm 7 mps 666 mmHg 48%
    01:00 +8°C° 0 mm 7 mps 666 mmHg 48%
    02:00 +8°C° 0 mm 7 mps 665 mmHg 48%
    03:00 +8°C° 0 mm 7 mps 665 mmHg 49%
    04:00 +8°C° 0 mm 6 mps 664 mmHg 50%
    05:00 +8°C° 0 mm 6 mps 664 mmHg 50%
    06:00 +8°C° 0 mm 6 mps 664 mmHg 51%
    07:00 +8°C° 0 mm 6 mps 663 mmHg 51%
    08:00 +8°C° 0 mm 6 mps 663 mmHg 52%
    09:00 +10°C° 0 mm 6 mps 663 mmHg 48%
    10:00 +11°C° 0 mm 6 mps 663 mmHg 45%
    11:00 +14°C° 0 mm 6 mps 663 mmHg 41%
    12:00 +15°C° 0 mm 6 mps 662 mmHg 39%
    13:00 +16°C° 0 mm 6 mps 661 mmHg 38%
    14:00 +16°C° 0 mm 6 mps 661 mmHg 36%
    15:00 +15°C° 0 mm 6 mps 660 mmHg 39%
    16:00 +14°C° 0 mm 5 mps 660 mmHg 42%
    17:00 +12°C° 0 mm 5 mps 659 mmHg 45%
    18:00 +10°C° 0 mm 5 mps 659 mmHg 47%
    19:00 +11°C° 0 mm 4 mps 659 mmHg 50%
    20:00 +10°C° 0 mm 4 mps 659 mmHg 53%
    21:00 +7°C° 0.4 mm 4 mps 659 mmHg 59%
    22:00 +6°C° 0.4 mm 5 mps 659 mmHg 64%
    23:00 +4°C° 0.4 mm 6 mps 659 mmHg 70%

    27 November, Monday

    Time Temperature Precipitation Wind Pressure Humidity
    00:00 +3°C° 0.5 mm 5 mps 659 mmHg 72%
    01:00 +4°C° 0.5 mm 4 mps 659 mmHg 74%
    02:00 +4°C° 0.5 mm 2 mps 659 mmHg 76%
    03:00 +4°C° 1.3 mm 2 mps 659 mmHg 79%
    04:00 +3°C° 1.3 mm 2 mps 659 mmHg 83%
    05:00 +3°C° 1.3 mm 2 mps 659 mmHg 87%
    06:00 +3°C° 0.1 mm 2 mps 659 mmHg 87%
    07:00 +3°C° 0.1 mm 2 mps 659 mmHg 88%
    08:00 +3°C° 0.1 mm 2 mps 659 mmHg 88%
    09:00 +3°C° 0 mm 2 mps 660 mmHg 83%
    10:00 +3°C° 0 mm 3 mps 662 mmHg 78%
    11:00 +4°C° 0 mm 3 mps 663 mmHg 73%
    12:00 +4°C° 0 mm 4 mps 664 mmHg 65%
    13:00 +3°C° 0 mm 5 mps 665 mmHg 58%
    14:00 +4°C° 0 mm 6 mps 666 mmHg 51%
    15:00 +3°C° 0 mm 5 mps 667 mmHg 52%
    16:00 +2°C° 0 mm 5 mps 667 mmHg 53%
    17:00 +1°C° 0 mm 5 mps 668 mmHg 54%
    18:00 0°C° 0 mm 5 mps 669 mmHg 57%
    19:00 0°C° 0 mm 4 mps 670 mmHg 59%
    20:00 -1°C° 0 mm 4 mps 671 mmHg 62%
    21:00 -1°C° 0 mm 4 mps 672 mmHg 64%
    22:00 -1°C° 0 mm 3 mps 673 mmHg 66%
    23:00 -2°C° 0 mm 3 mps 674 mmHg 68%
    Show more